"Pseudo-MPEC" for A10UbpL

Created 2023 Apr 10 23:22:02 UT using Find_Orb

Click here for an explanation of pseudo-MPECs

 
 Astrometry: 
     A10UbpL* C2023 03 27.39691010 38 29.066+15 04 24.49   ~3RFM 17.63oVNEOCPT05
     A10UbpL  C2023 03 27.40053310 39 01.553+14 55 15.38   ~3RFM 17.40oVNEOCPT05
     A10UbpL  C2023 03 27.40660810 39 56.059+14 39 48.85   ~3RFM 17.46oVNEOCPT05
     A10UbpL  C2023 03 27.43236910 43 48.653+13 33 34.85   ~3RFM 17.41oVNEOCPT05

Station data:
(T05) ATLAS-HKO, Haleakala  (N20.707571 W156.257010)  US/Hawaii.  Observers
   L. Denneau, A. Heinze, H. Weiland, J. Tonry, H. Flewelling, A.
   Fitzsimmons, D. Young, B. Stalder. Measurers L. Denneau, A. Heinze, J.
   Tonry. 0.5-m f/2.0 Schmidt + CCD.

Orbital elements:  A10UbpL
   Perigee 2023 Mar 27.79693 +/- 8.38 TT = 19:07:35 (JD 2460031.29693)
Epoch 2023 Mar 27.0 TT = JDT 2460030.5                           AutoNEOCP
q363116.883 +/- 1.15e+6             (J2000 equator)
H   29.38 G 0.15                    Peri.  185.47937 +/- 8
                                    Node   354.34252 +/- 0.07
e  23.6642192 +/- 0.245             Incl.   47.17948 +/- 2.0
From 4 observations 2023 Mar. 27 (51.1 min); mean residual 3".04
Residuals in arcseconds: 
230327 T05  3.2-  3.7+    230327 T05  4.0+  5.5-    
230327 T05  .37+  .30+    230327 T05  1.2-  1.5+    

Ephemerides (geocentric):
Date (UTC) HH   RA             Dec           delta  r     elong  mag " sig PA
---- --------  ------------   ------------  ------ ------ -----  --- --------
2023 04 10 23  18 00 51.395   -46 54 48.92  .04090 1.0156 108.6 25.0 668'   3
2023 04 11 00  18 00 54.189   -46 54 45.15  .04102 1.0157 108.6 25.0 668'   3
2023 04 11 01  18 00 56.958   -46 54 41.39  .04113 1.0158 108.6 25.0 668'   3
2023 04 11 02  18 00 59.702   -46 54 37.64  .04125 1.0158 108.7 25.0 669'   3
2023 04 11 03  18 01 02.420   -46 54 33.90  .04137 1.0159 108.7 25.0 669'   3
2023 04 11 04  18 01 05.114   -46 54 30.16  .04149 1.0160 108.7 25.0 669'   3
2023 04 11 05  18 01 07.784   -46 54 26.43  .04160 1.0161 108.8 25.0 670'   3
2023 04 11 06  18 01 10.429   -46 54 22.71  .04172 1.0161 108.8 25.0 670'   3
2023 04 11 07  18 01 13.049   -46 54 19.00  .04184 1.0162 108.8 25.0 670'   3
2023 04 11 08  18 01 15.646   -46 54 15.29  .04196 1.0163 108.9 25.0 671'   3
2023 04 11 09  18 01 18.218   -46 54 11.59  .04207 1.0164 108.9 25.0 671'   3
2023 04 11 10  18 01 20.767   -46 54 07.90  .04219 1.0164 108.9 25.0 671'   3
2023 04 11 11  18 01 23.292   -46 54 04.22  .04231 1.0165 108.9 25.0 672'   3
2023 04 11 12  18 01 25.794   -46 54 00.54  .04243 1.0166 109.0 25.0 672'   3
2023 04 11 13  18 01 28.272   -46 53 56.87  .04254 1.0167 109.0 25.0 672'   3
2023 04 11 14  18 01 30.726   -46 53 53.21  .04266 1.0167 109.0 25.0 673'   3
2023 04 11 15  18 01 33.158   -46 53 49.55  .04278 1.0168 109.1 25.0 673'   3
2023 04 11 16  18 01 35.567   -46 53 45.90  .04289 1.0169 109.1 25.0 673'   3
2023 04 11 17  18 01 37.953   -46 53 42.26  .04301 1.0170 109.1 25.0 673'   3
2023 04 11 18  18 01 40.316   -46 53 38.63  .04313 1.0170 109.2 25.1 674'   3
2023 04 11 19  18 01 42.656   -46 53 35.00  .04325 1.0171 109.2 25.1 674'   3
2023 04 11 20  18 01 44.975   -46 53 31.38  .04336 1.0172 109.2 25.1 674'   3
2023 04 11 21  18 01 47.270   -46 53 27.76  .04348 1.0173 109.2 25.1 675'   3
2023 04 11 22  18 01 49.544   -46 53 24.15  .04360 1.0173 109.3 25.1 675'   3
2023 04 11 23  18 01 51.796   -46 53 20.55  .04371 1.0174 109.3 25.1 675'   3
2023 04 12 00  18 01 54.025   -46 53 16.95  .04383 1.0175 109.3 25.1 676'   2
2023 04 12 01  18 01 56.233   -46 53 13.36  .04395 1.0176 109.4 25.1 676'   2
2023 04 12 02  18 01 58.420   -46 53 09.78  .04407 1.0176 109.4 25.1 676'   2
2023 04 12 03  18 02 00.585   -46 53 06.20  .04418 1.0177 109.4 25.1 677'   2
2023 04 12 04  18 02 02.728   -46 53 02.63  .04430 1.0178 109.5 25.1 677'   2
2023 04 12 05  18 02 04.850   -46 52 59.06  .04442 1.0179 109.5 25.1 677'   2
2023 04 12 06  18 02 06.951   -46 52 55.50  .04453 1.0180 109.5 25.1 677'   2
2023 04 12 07  18 02 09.031   -46 52 51.94  .04465 1.0180 109.6 25.1 678'   2
2023 04 12 08  18 02 11.090   -46 52 48.39  .04477 1.0181 109.6 25.1 678'   2
2023 04 12 09  18 02 13.128   -46 52 44.85  .04488 1.0182 109.6 25.1 678'   2
2023 04 12 10  18 02 15.145   -46 52 41.31  .04500 1.0183 109.7 25.1 679'   2
2023 04 12 11  18 02 17.142   -46 52 37.77  .04512 1.0184 109.7 25.1 679'   2
2023 04 12 12  18 02 19.118   -46 52 34.24  .04524 1.0184 109.7 25.1 679'   2
2023 04 12 13  18 02 21.074   -46 52 30.72  .04535 1.0185 109.7 25.1 680'   2
2023 04 12 14  18 02 23.010   -46 52 27.20  .04547 1.0186 109.8 25.1 680'   2
2023 04 12 15  18 02 24.925   -46 52 23.68  .04559 1.0187 109.8 25.2 680'   2
2023 04 12 16  18 02 26.821   -46 52 20.17  .04570 1.0188 109.8 25.2 680'   2
2023 04 12 17  18 02 28.696   -46 52 16.67  .04582 1.0188 109.9 25.2 681'   2
2023 04 12 18  18 02 30.552   -46 52 13.17  .04594 1.0189 109.9 25.2 681'   2
2023 04 12 19  18 02 32.388   -46 52 09.67  .04605 1.0190 109.9 25.2 681'   2
2023 04 12 20  18 02 34.204   -46 52 06.18  .04617 1.0191 110.0 25.2 682'   2
2023 04 12 21  18 02 36.001   -46 52 02.69  .04629 1.0192 110.0 25.2 682'   2
2023 04 12 22  18 02 37.778   -46 51 59.20  .04640 1.0192 110.0 25.2 682'   2